EW7833 Weather Reports


Display with metric or nautical units.
time (UTC)temp
F
wind
direction
speed
MPH
gust
MPH
rain 1hr
in
rain 24hr
in
rain mn
in
humidity
%
barometer
mb
20260506040007 38 220 0.0 2.0 0.00 0.00 0.00 69 1010.8
20260506034511 38 76 1.0 4.0 0.00 0.00 0.00 68 1010.5
20260506033007 39 122 1.0 4.0 0.00 0.00 0.00 69 1010.5
20260506031502 39 137 0.0 4.0 0.00 0.00 0.00 67 1010.5
20260506030057 39 87 0.0 4.0 0.00 0.00 0.00 71 1010.2
20260506024556 40 106 0.0 5.0 0.00 0.00 0.00 72 1010.1
20260506023109 40 336 0.0 4.0 0.00 0.00 0.00 72 1009.8
20260506021551 40 117 0.0 5.0 0.00 0.00 0.00 76 1009.7
20260506020049 40 86 1.0 5.0 0.00 0.00 0.00 77 1009.4
20260506014547 41 100 0.0 6.0 0.00 0.00 0.00 76 1009.2
20260506013044 41 96 1.0 7.0 0.00 0.00 0.00 77 1009.0
20260506011540 41 104 2.0 6.0 0.00 0.00 0.00 75 1008.6
20260506010050 43 106 1.0 6.0 0.00 0.00 0.00 73 1008.4
20260506004558 45 101 0.0 1.0 0.00 0.03 0.00 66 1008.1
20260506003045 46 115 0.0 4.0 0.00 0.03 0.00 63 1007.9
20260506001538 47 325 1.0 3.0 0.00 0.03 0.00 56 1007.8
20260506000032 49 339 0.0 1.0 0.00 0.03 0.00 58 1007.5
20260505234546 50 150 0.0 0.0 0.00 0.10 0.00 51 1007.3
20260505233028 51 263 0.0 10.0 0.00 0.10 0.00 49 1007.1
20260505231526 50 260 0.0 11.0 0.00 0.10 0.00 52 1007.1
20260505230035 50 271 5.0 15.0 0.00 0.10 0.00 50 1007.1
20260505224524 50 263 8.0 17.0 0.00 0.10 0.00 52 1007.2
20260505223021 50 268 11.0 15.0 0.00 0.10 0.00 49 1007.1
20260505221521 50 257 7.0 19.0 0.00 0.10 0.00 50 1007.1
20260505220029 50 269 10.0 17.0 0.00 0.10 0.00 49 1006.9
20260505214523 50 278 10.0 18.0 0.00 0.10 0.00 49 1006.9
20260505213017 50 270 11.0 17.0 0.00 0.10 0.00 48 1006.8
20260505211515 50 263 12.0 19.0 0.00 0.10 0.00 50 1007.0
20260505210013 50 262 10.0 19.0 0.00 0.10 0.00 54 1007.0
20260505204512 50 271 12.0 19.0 0.00 0.10 0.00 50 1006.9
20260505203010 49 271 13.0 17.0 0.00 0.10 0.00 53 1006.7
20260505201512 49 240 12.0 20.0 0.00 0.10 0.00 54 1006.7
20260505200007 49 264 9.0 20.0 0.00 0.10 0.00 56 1006.7
20260505194518 49 266 9.0 15.0 0.00 0.10 0.00 63 1006.7
20260505193016 48 265 11.0 17.0 0.00 0.10 0.00 57 1006.7
20260505191502 48 269 9.0 20.0 0.00 0.10 0.00 57 1006.6
20260505190100 47 270 13.0 18.0 0.00 0.10 0.00 61 1006.5
20260505184603 47 269 12.0 19.0 0.00 0.10 0.00 60 1006.4
20260505183057 46 248 13.0 19.0 0.00 0.10 0.00 62 1006.2
20260505181558 46 261 12.0 19.0 0.00 0.10 0.00 63 1006.2
20260505180059 46 264 12.0 19.0 0.00 0.10 0.00 64 1006.0
20260505174609 46 259 13.0 18.0 0.00 0.10 0.00 65 1005.7
20260505173052 46 271 15.0 20.0 0.00 0.10 0.00 64 1005.7
20260505171550 47 273 17.0 22.0 0.00 0.10 0.00 63 1005.5
20260505170120 46 262 13.0 18.0 0.00 0.10 0.00 68 1005.5
20260505164549 46 266 15.0 21.0 0.00 0.10 0.00 66 1005.4
20260505163047 46 256 13.0 20.0 0.00 0.10 0.00 67 1005.4
20260505161554 45 253 11.0 18.0 0.00 0.10 0.00 67 1005.3
20260505153054 44 269 12.0 17.0 0.00 0.10 0.00 74 1005.6
20260505151548 44 283 12.0 17.0 0.00 0.10 0.00 76 1005.4
20260505124524 43 260 3.0 6.0 0.00 0.10 0.00 76 1003.3
20260505123030 42 252 4.0 6.0 0.00 0.10 0.00 81 1003.4
20260505121521 42 287 4.0 8.0 0.00 0.10 0.00 83 1003.2
20260505120027 42 272 4.0 7.0 0.00 0.10 0.00 83 1003.0
20260505114519 41 268 5.0 8.0 0.00 0.10 0.00 83 1002.9
20260505113028 41 271 5.0 8.0 0.00 0.10 0.00 85 1002.8
20260505111522 41 264 4.0 6.0 0.00 0.10 0.00 84 1002.8
20260505101507 41 250 0.0 2.0 0.00 0.10 0.00 75 1001.6
20260505100004 41 234 0.0 0.0 0.00 0.10 0.00 75 1001.6
20260505094501 42 348 0.0 1.0 0.00 0.10 0.00 72 1001.3
20260505093059 43 17 0.0 1.0 0.00 0.10 0.00 72 1001.1
20260505091556 43 213 0.0 3.0 0.00 0.10 0.00 70 1001.0
20260505090058 44 117 0.0 0.0 0.00 0.10 0.00 72 1001.0
20260505084553 44 134 0.0 2.0 0.00 0.10 0.00 71 1000.9
20260505083101 44 270 0.0 3.0 0.00 0.10 0.00 70 1000.7
20260505081552 45 175 0.0 0.0 0.00 0.10 0.00 69 1000.7
20260505080047 45 227 0.0 1.0 0.00 0.10 0.00 69 1000.6
20260505074546 45 251 0.0 3.0 0.00 0.10 0.00 69 1000.5
20260505073044 45 89 0.0 2.0 0.00 0.10 0.00 66 1000.4
20260505071542 46 94 0.0 4.0 0.00 0.10 0.00 65 1000.3
20260505070048 46 186 0.0 1.0 0.00 0.10 0.00 70 1000.2
20260505064554 46 233 0.0 1.0 0.00 0.10 0.00 69 1000.3
20260505063046 46 284 0.0 5.0 0.00 0.10 0.00 68 1000.3
20260505061542 46 226 0.0 0.0 0.00 0.10 0.00 71 1000.2
20260505060038 46 179 0.0 0.0 0.00 0.10 0.00 73 1000.4
20260505054536 46 240 0.0 1.0 0.00 0.10 0.00 71 1000.1
20260505053033 46 240 0.0 1.0 0.00 0.10 0.00 73 999.9
20260505051532 46 257 0.0 4.0 0.00 0.10 0.00 73 999.8
20260505041529 46 101 0.0 0.0 0.00 0.10 0.00 81 998.8